Location: St. Louis
(38.6270°N, 90.1994°W)
Time: 13:02:53
(UTC-06:00)

S-56A Canister/Altair - All Passes

Search period start: 30 November 2021 00:00
Search period end: 10 December 2021 00:00
Orbit: 633 x 2500 km, 38.9° (Epoch: 30 November)

Date Brightness Start Highest point End Pass type
(mag) Time Alt. Az. Time Alt. Az. Time Alt. Az.
30 Nov - 01:12:03 10° WSW 01:20:20 61° SSE 01:25:53 10° E night (unlit)
30 Nov - 03:17:54 10° W 03:24:20 87° N 03:29:03 10° E visible
30 Nov - 05:23:02 10° W 05:27:57 59° SSW 05:32:18 10° ESE visible
30 Nov - 07:28:33 10° WSW 07:30:57 14° SW 07:33:26 10° S daylight
30 Nov - 22:35:07 10° SSW 22:43:11 25° SSE 22:49:14 10° E night (unlit)
01 Dec - 00:38:44 10° SW 00:47:38 58° SSE 00:53:32 10° E night (unlit)
01 Dec - 02:44:43 10° W 02:51:45 88° N 02:56:43 10° E visible
01 Dec - 04:50:12 10° W 04:55:31 66° SSW 04:59:54 10° ESE visible
01 Dec - 06:55:33 10° WSW 06:58:30 17° SW 07:01:28 10° S daylight
01 Dec - 22:02:08 10° SSW 22:10:17 23° SE 22:16:32 10° E visible
02 Dec - 00:05:21 10° SW 00:14:52 54° SSE 00:21:10 10° E night (unlit)
02 Dec - 02:11:26 10° W 02:19:08 90° NNW 02:24:23 10° E night (unlit)
02 Dec - 04:17:16 10° W 04:23:02 74° SSW 04:27:33 10° ESE visible
02 Dec - 06:22:36 10° W 06:26:05 21° SW 06:29:25 10° SSE visible
02 Dec - 21:29:14 10° S 21:37:20 21° SE 21:43:42 10° E visible
02 Dec - 23:31:57 10° SW 23:42:03 51° SSE 23:48:46 10° E night (unlit)
03 Dec - 01:38:03 10° W 01:46:28 88° S 01:52:03 10° E night (unlit)
03 Dec - 03:44:13 10° W 03:50:32 80° SSW 03:55:13 10° ESE visible
03 Dec - 05:49:39 10° W 05:53:41 25° SSW 05:57:20 10° SSE visible
03 Dec - 20:56:26 10° S 21:04:21 20° SE 21:10:44 10° ESE visible
03 Dec - 22:58:32 10° SW 23:09:10 48° SSE 23:16:19 10° E night (unlit)
04 Dec - 01:04:35 10° WSW 01:13:45 85° SSE 01:19:43 10° E night (unlit)
04 Dec - 03:11:04 10° W 03:17:58 85° S 03:22:53 10° ESE visible
04 Dec - 05:16:40 10° W 05:21:16 31° SSW 05:25:13 10° SSE visible
04 Dec - 20:23:46 10° S 20:31:19 18° SE 20:37:37 10° ESE visible
04 Dec - 22:25:07 10° SW 22:36:14 46° SSE 22:43:49 10° E visible
05 Dec - 00:31:04 10° WSW 00:40:59 82° SSE 00:47:22 10° E night (unlit)
05 Dec - 02:37:48 10° W 02:45:23 88° S 02:50:33 10° E visible
05 Dec - 04:43:39 10° W 04:48:51 37° SSW 04:53:04 10° SE visible
05 Dec - 19:51:19 10° S 19:58:16 16° SE 20:04:15 10° ESE visible
05 Dec - 21:51:43 10° SW 22:03:14 43° SSE 22:11:16 10° E visible
05 Dec - 23:57:28 10° WSW 00:08:08 79° SSE 00:14:59 10° E night (unlit)
06 Dec - 02:04:26 10° W 02:12:43 89° N 02:18:13 10° E night (unlit)
06 Dec - 04:10:34 10° W 04:16:25 45° SSW 04:20:53 10° SE visible
06 Dec - 19:19:10 10° SSE 19:25:10 14° SE 19:30:33 10° ESE visible
06 Dec - 21:18:22 10° SSW 21:30:10 40° SSE 21:38:38 10° E visible
06 Dec - 23:23:49 10° WSW 23:35:14 75° SSE 23:42:36 10° E night (unlit)
07 Dec - 01:30:59 10° W 01:40:00 88° N 01:45:53 10° E night (unlit)
07 Dec - 03:37:23 10° W 03:43:56 53° SSW 03:48:42 10° SE visible
07 Dec - 05:45:31 10° SW 05:46:30 11° SW 05:47:28 10° SSW visible
07 Dec - 18:47:33 10° SSE 18:52:04 12° SE 18:56:18 10° ESE visible
07 Dec - 20:45:05 10° SSW 20:57:04 38° SSE 21:05:56 10° E visible
07 Dec - 22:50:10 10° WSW 23:02:16 72° SSE 23:10:09 10° E visible
08 Dec - 00:57:25 10° W 01:07:14 88° N 01:13:32 10° E night (unlit)
08 Dec - 03:04:09 10° W 03:11:25 61° SSW 03:16:28 10° ESE visible
08 Dec - 05:11:15 10° WSW 05:14:07 14° SW 05:16:39 10° S visible
08 Dec - 18:17:44 10° SE 18:18:58 10° SE 18:20:12 10° SE visible
08 Dec - 20:11:53 10° SSW 20:23:54 35° SE 20:33:07 10° E visible
08 Dec - 22:16:31 10° WSW 22:29:13 69° SSE 22:37:39 10° E visible
09 Dec - 00:23:46 10° W 00:34:22 88° N 00:41:10 10° E night (unlit)
09 Dec - 02:30:48 10° W 02:38:50 68° SSW 02:44:14 10° ESE night (unlit)
09 Dec - 04:37:40 10° W 04:41:43 19° SW 04:45:07 10° S visible
09 Dec - 19:38:47 10° SSW 19:50:43 32° SE 20:00:12 10° E visible
09 Dec - 21:42:52 10° SW 21:56:06 65° SSE 22:05:07 10° ENE visible
